When you browse on this site, cookies collect data to enhance your experience and personalize the content and advertising you see.
Visit our Privacy Policy to learn more. By continuing to use the site, you agree to this use of cookies and data.

Meteo pe oră la Dzielow

Astăzi, 19 Septembrie, Sâmbătă

Timp Temperatura Precipitaţii Vânt Presiune Umiditate
00:00 +11°C° 0 mm 1 m/s 750 mmHg 61%
01:00 +10°C° 0 mm 1 m/s 750 mmHg 62%
02:00 +10°C° 0 mm 1 m/s 749 mmHg 63%
03:00 +10°C° 0 mm 1 m/s 749 mmHg 64%
04:00 +10°C° 0 mm 1 m/s 749 mmHg 64%
05:00 +10°C° 0 mm 1 m/s 749 mmHg 64%
06:00 +11°C° 0 mm 1 m/s 748 mmHg 63%
07:00 +11°C° 0 mm 1 m/s 748 mmHg 63%
08:00 +13°C° 0 mm 1 m/s 748 mmHg 58%
09:00 +15°C° 0 mm 1 m/s 748 mmHg 52%
10:00 +16°C° 0 mm 1 m/s 748 mmHg 47%
11:00 +19°C° 0 mm 1 m/s 747 mmHg 44%
12:00 +20°C° 0 mm 1 m/s 747 mmHg 41%
13:00 +21°C° 0 mm 1 m/s 747 mmHg 38%
14:00 +21°C° 0 mm 1 m/s 747 mmHg 39%
15:00 +21°C° 0 mm 1 m/s 746 mmHg 40%
16:00 +21°C° 0 mm 1 m/s 746 mmHg 42%
17:00 +19°C° 0 mm 1 m/s 746 mmHg 45%
18:00 +18°C° 0 mm 1 m/s 746 mmHg 49%
19:00 +15°C° 0 mm 1 m/s 745 mmHg 52%
20:00 +14°C° 0 mm 1 m/s 746 mmHg 55%
21:00 +14°C° 0 mm 1 m/s 746 mmHg 57%
22:00 +13°C° 0 mm 1 m/s 746 mmHg 59%
23:00 +13°C° 0 mm 1 m/s 745 mmHg 61%

Mâine, 20 Septembrie, Duminică

Timp Temperatura Precipitaţii Vânt Presiune Umiditate
00:00 +13°C° 0 mm 1 m/s 745 mmHg 64%
01:00 +12°C° 0 mm 1 m/s 745 mmHg 66%
02:00 +12°C° 0 mm 1 m/s 745 mmHg 67%
03:00 +12°C° 0 mm 1 m/s 745 mmHg 69%
04:00 +11°C° 0 mm 1 m/s 744 mmHg 70%
05:00 +12°C° 0 mm 1 m/s 744 mmHg 70%
06:00 +12°C° 0 mm 1 m/s 745 mmHg 69%
07:00 +13°C° 0 mm 1 m/s 745 mmHg 69%
08:00 +14°C° 0 mm 1 m/s 745 mmHg 64%
09:00 +16°C° 0 mm 1 m/s 745 mmHg 60%
10:00 +19°C° 0 mm 1 m/s 745 mmHg 55%
11:00 +20°C° 0 mm 1 m/s 744 mmHg 52%
12:00 +21°C° 0 mm 1 m/s 744 mmHg 48%
13:00 +22°C° 0 mm 1 m/s 744 mmHg 45%
14:00 +22°C° 0 mm 1 m/s 744 mmHg 46%
15:00 +22°C° 0 mm 1 m/s 744 mmHg 47%
16:00 +22°C° 0 mm 1 m/s 743 mmHg 48%
17:00 +20°C° 0 mm 1 m/s 743 mmHg 53%
18:00 +19°C° 0 mm 1 m/s 743 mmHg 57%
19:00 +16°C° 0 mm 1 m/s 743 mmHg 62%
20:00 +15°C° 0 mm 1 m/s 743 mmHg 64%
21:00 +15°C° 0 mm 1 m/s 744 mmHg 66%
22:00 +13°C° 0 mm 0 m/s 744 mmHg 68%
23:00 +13°C° 0 mm 0 m/s 744 mmHg 70%

Poimâine, 21 Septembrie, Luni

Timp Temperatura Precipitaţii Vânt Presiune Umiditate
00:00 +13°C° 0 mm 0 m/s 743 mmHg 71%
01:00 +12°C° 0 mm 0 m/s 743 mmHg 72%
02:00 +13°C° 0 mm 1 m/s 743 mmHg 72%
03:00 +13°C° 0 mm 1 m/s 743 mmHg 72%
04:00 +13°C° 0 mm 1 m/s 743 mmHg 72%
05:00 +14°C° 0 mm 1 m/s 743 mmHg 69%
06:00 +15°C° 0 mm 1 m/s 743 mmHg 67%
07:00 +16°C° 0 mm 1 m/s 743 mmHg 65%
08:00 +19°C° 0 mm 1 m/s 744 mmHg 57%
09:00 +20°C° 0 mm 2 m/s 744 mmHg 50%
10:00 +23°C° 0 mm 2 m/s 744 mmHg 43%
11:00 +24°C° 0 mm 3 m/s 744 mmHg 41%
12:00 +25°C° 0 mm 3 m/s 743 mmHg 39%
13:00 +26°C° 0 mm 4 m/s 743 mmHg 37%
14:00 +25°C° 0 mm 3 m/s 743 mmHg 40%
15:00 +25°C° 0 mm 3 m/s 743 mmHg 43%
16:00 +25°C° 0 mm 2 m/s 743 mmHg 46%
17:00 +23°C° 0 mm 2 m/s 743 mmHg 49%
18:00 +20°C° 0 mm 2 m/s 743 mmHg 52%
19:00 +18°C° 0 mm 2 m/s 743 mmHg 55%
20:00 +18°C° 0 mm 2 m/s 743 mmHg 55%
21:00 +18°C° 0 mm 2 m/s 743 mmHg 55%
22:00 +17°C° 0 mm 2 m/s 743 mmHg 55%
23:00 +17°C° 0 mm 2 m/s 742 mmHg 56%

22 Septembrie, Marţi

Timp Temperatura Precipitaţii Vânt Presiune Umiditate
00:00 +16°C° 0 mm 2 m/s 742 mmHg 57%
01:00 +16°C° 0 mm 2 m/s 742 mmHg 57%
02:00 +16°C° 0 mm 2 m/s 742 mmHg 57%
03:00 +16°C° 0 mm 2 m/s 741 mmHg 57%
04:00 +15°C° 0 mm 2 m/s 741 mmHg 57%
05:00 +16°C° 0 mm 2 m/s 741 mmHg 58%
06:00 +16°C° 0 mm 2 m/s 741 mmHg 58%
07:00 +17°C° 0 mm 2 m/s 741 mmHg 59%
08:00 +19°C° 0 mm 3 m/s 741 mmHg 53%
09:00 +21°C° 0 mm 4 m/s 741 mmHg 48%
10:00 +23°C° 0 mm 5 m/s 741 mmHg 42%
11:00 +25°C° 0 mm 5 m/s 741 mmHg 41%
12:00 +26°C° 0 mm 5 m/s 740 mmHg 39%
13:00 +27°C° 0 mm 6 m/s 740 mmHg 38%
14:00 +26°C° 0 mm 5 m/s 740 mmHg 41%
15:00 +26°C° 0 mm 4 m/s 739 mmHg 43%
16:00 +26°C° 0 mm 3 m/s 739 mmHg 45%
17:00 +24°C° 0 mm 3 m/s 738 mmHg 48%
18:00 +21°C° 0 mm 3 m/s 738 mmHg 50%
19:00 +19°C° 0 mm 3 m/s 738 mmHg 53%
20:00 +19°C° 0 mm 3 m/s 738 mmHg 54%
21:00 +18°C° 0 mm 3 m/s 738 mmHg 55%
22:00 +18°C° 0 mm 3 m/s 738 mmHg 56%
23:00 +18°C° 0 mm 2 m/s 737 mmHg 56%

23 Septembrie, Miercuri

Timp Temperatura Precipitaţii Vânt Presiune Umiditate
00:00 +17°C° 0 mm 2 m/s 737 mmHg 56%
01:00 +17°C° 0 mm 2 m/s 737 mmHg 57%
02:00 +17°C° 0 mm 2 m/s 736 mmHg 57%
03:00 +17°C° 0 mm 3 m/s 736 mmHg 57%
04:00 +17°C° 0 mm 3 m/s 736 mmHg 58%
05:00 +17°C° 0 mm 3 m/s 736 mmHg 60%
06:00 +18°C° 0 mm 3 m/s 736 mmHg 62%
07:00 +18°C° 0 mm 3 m/s 736 mmHg 64%
08:00 +19°C° 0.1 mm 4 m/s 736 mmHg 62%
09:00 +21°C° 0.1 mm 5 m/s 736 mmHg 60%
10:00 +23°C° 0.1 mm 6 m/s 736 mmHg 58%
11:00 +24°C° 0.1 mm 6 m/s 735 mmHg 56%
12:00 +25°C° 0.1 mm 5 m/s 735 mmHg 54%
13:00 +26°C° 0.1 mm 5 m/s 735 mmHg 53%
14:00 +26°C° 0.1 mm 5 m/s 735 mmHg 55%
15:00 +25°C° 0.1 mm 4 m/s 735 mmHg 57%
16:00 +25°C° 0.1 mm 4 m/s 734 mmHg 59%
17:00 +24°C° 0.6 mm 3 m/s 734 mmHg 64%
18:00 +21°C° 0.6 mm 2 m/s 734 mmHg 70%
19:00 +20°C° 0.6 mm 2 m/s 734 mmHg 76%
20:00 +19°C° 0.3 mm 2 m/s 734 mmHg 77%
21:00 +19°C° 0.3 mm 2 m/s 734 mmHg 79%
22:00 +19°C° 0.3 mm 2 m/s 734 mmHg 80%
23:00 +19°C° 0.4 mm 2 m/s 734 mmHg 81%

24 Septembrie, Joi

Timp Temperatura Precipitaţii Vânt Presiune Umiditate
00:00 +18°C° 0.4 mm 2 m/s 734 mmHg 82%
01:00 +18°C° 0.4 mm 2 m/s 734 mmHg 83%
02:00 +18°C° 0.4 mm 2 m/s 734 mmHg 84%
03:00 +18°C° 0.4 mm 2 m/s 734 mmHg 85%
04:00 +18°C° 0.4 mm 2 m/s 734 mmHg 86%
05:00 +18°C° 0.4 mm 2 m/s 734 mmHg 86%
06:00 +18°C° 0.4 mm 2 m/s 735 mmHg 87%
07:00 +19°C° 0.4 mm 1 m/s 735 mmHg 87%
08:00 +19°C° 0.2 mm 1 m/s 735 mmHg 86%
09:00 +19°C° 0.2 mm 1 m/s 735 mmHg 84%
10:00 +20°C° 0.2 mm 1 m/s 735 mmHg 83%
11:00 +20°C° 0 mm 1 m/s 735 mmHg 80%
12:00 +21°C° 0 mm 1 m/s 735 mmHg 77%
13:00 +22°C° 0 mm 1 m/s 735 mmHg 74%
14:00 +21°C° 0.1 mm 2 m/s 735 mmHg 73%
15:00 +21°C° 0.1 mm 2 m/s 735 mmHg 72%
16:00 +22°C° 0.1 mm 3 m/s 735 mmHg 72%
17:00 +20°C° 0.1 mm 3 m/s 735 mmHg 77%
18:00 +19°C° 0.1 mm 2 m/s 734 mmHg 81%
19:00 +18°C° 0.1 mm 2 m/s 734 mmHg 86%
20:00 +18°C° 0 mm 2 m/s 734 mmHg 87%
21:00 +17°C° 0 mm 2 m/s 734 mmHg 88%
22:00 +17°C° 0 mm 2 m/s 734 mmHg 89%
23:00 +17°C° 0 mm 2 m/s 733 mmHg 89%
Arată mai mult